| time (UTC) | temp F | wind direction | speed MPH | gust MPH | rain 1hr in | rain 24hr in | rain mn in | humidity % | barometer mb |
| 20260510003004 | 46 | 123 | 15.0 | 19.0 | 0.03 | 0.22 | 0.22 | 93 | 1012.2 |
| 20260510002004 | 46 | 114 | 15.0 | 19.0 | 0.02 | 0.21 | 0.21 | 93 | 1012.3 |
| 20260510001003 | 46 | 99 | 13.0 | 15.0 | 0.01 | 0.20 | 0.20 | 93 | 1012.4 |
| 20260510000024 | 45 | 76 | 12.0 | 16.0 | 0.03 | 0.19 | 0.19 | 93 | 1012.5 |
| 20260509235002 | 45 | 70 | 14.0 | 18.0 | 0.02 | 0.18 | 0.18 | 93 | 1012.4 |
| 20260509234003 | 45 | 74 | 16.0 | 19.0 | 0.02 | 0.18 | 0.18 | 93 | 1012.3 |
| 20260509233025 | 45 | 75 | 17.0 | 21.0 | 0.01 | 0.17 | 0.17 | 93 | 1012.5 |
| 20260509232003 | 45 | 92 | 18.0 | 22.0 | 0.01 | 0.17 | 0.17 | 93 | 1012.8 |
| 20260509231024 | 45 | 89 | 19.0 | 23.0 | 0.01 | 0.17 | 0.17 | 93 | 1012.9 |
| 20260509230004 | 44 | 82 | 18.0 | 21.0 | 0.00 | 0.16 | 0.16 | 93 | 1012.9 |
| 20260509225003 | 44 | 65 | 18.0 | 22.0 | 0.02 | 0.16 | 0.16 | 92 | 1012.5 |
| 20260509224024 | 45 | 77 | 18.0 | 22.0 | 0.02 | 0.16 | 0.16 | 92 | 1012.7 |
| 20260509223003 | 45 | 71 | 17.0 | 19.0 | 0.01 | 0.15 | 0.15 | 92 | 1012.9 |
| 20260509222003 | 45 | 77 | 17.0 | 19.0 | 0.01 | 0.15 | 0.15 | 92 | 1013.2 |
| 20260509221002 | 45 | 85 | 16.0 | 18.0 | 0.00 | 0.14 | 0.14 | 92 | 1013.3 |
| 20260509220024 | 45 | 86 | 16.0 | 19.0 | 0.00 | 0.14 | 0.14 | 92 | 1013.5 |
| 20260509215003 | 45 | 85 | 14.0 | 17.0 | 0.00 | 0.14 | 0.14 | 92 | 1013.6 |
| 20260509214003 | 45 | 81 | 15.0 | 18.0 | 0.00 | 0.14 | 0.14 | 92 | 1013.4 |
| 20260509213003 | 45 | 95 | 15.0 | 18.0 | 0.00 | 0.14 | 0.14 | 92 | 1013.6 |
| 20260509212002 | 45 | 97 | 15.0 | 17.0 | 0.00 | 0.14 | 0.14 | 91 | 1013.7 |
| 20260509211024 | 45 | 86 | 12.0 | 15.0 | 0.00 | 0.14 | 0.14 | 92 | 1014.0 |
| 20260509210004 | 45 | 78 | 12.0 | 14.0 | 0.00 | 0.14 | 0.14 | 91 | 1013.4 |
| 20260509205003 | 45 | 58 | 10.0 | 14.0 | 0.04 | 0.13 | 0.13 | 91 | 1013.0 |
| 20260509204003 | 45 | 110 | 8.0 | 10.0 | 0.03 | 0.12 | 0.12 | 91 | 1014.0 |
| 20260509203003 | 45 | 126 | 6.0 | 10.0 | 0.03 | 0.12 | 0.12 | 91 | 1014.4 |
| 20260509201045 | 45 | 124 | 9.0 | 11.0 | 0.00 | 0.09 | 0.09 | 91 | 1014.2 |
| 20260509200003 | 45 | 124 | 8.0 | 10.0 | 0.04 | 0.09 | 0.09 | 91 | 1014.1 |
| 20260509195004 | 46 | 160 | 6.0 | 9.0 | 0.03 | 0.08 | 0.08 | 90 | 1014.4 |
| 20260509194024 | 46 | 152 | 4.0 | 8.0 | 0.02 | 0.07 | 0.07 | 90 | 1014.3 |
| 20260509193003 | 46 | 158 | 5.0 | 8.0 | 0.01 | 0.06 | 0.06 | 90 | 1014.5 |
| 20260509192024 | 46 | 158 | 6.0 | 9.0 | 0.01 | 0.06 | 0.06 | 90 | 1014.5 |
| 20260509191023 | 46 | 173 | 9.0 | 13.0 | 0.00 | 0.05 | 0.05 | 90 | 1014.4 |
| 20260509190024 | 45 | 178 | 11.0 | 15.0 | 0.05 | 0.05 | 0.05 | 89 | 1014.7 |
| 20260509185003 | 46 | 179 | 12.0 | 16.0 | 0.04 | 0.04 | 0.04 | 89 | 1014.5 |
| 20260509184003 | 46 | 184 | 14.0 | 17.0 | 0.03 | 0.03 | 0.03 | 88 | 1014.7 |
| 20260509183024 | 47 | 185 | 11.0 | 14.0 | 0.02 | 0.02 | 0.02 | 88 | 1014.5 |
| 20260509182003 | 47 | 183 | 9.0 | 12.0 | 0.01 | 0.01 | 0.01 | 87 | 1014.6 |
| 20260509181024 | 48 | 191 | 10.0 | 13.0 | 0.00 | 0.00 | 0.00 | 87 | 1014.5 |
| 20260509180003 | 48 | 190 | 13.0 | 18.0 | 0.00 | 0.00 | 0.00 | 86 | 1014.6 |
| 20260509175003 | 48 | 199 | 15.0 | 17.0 | 0.00 | 0.00 | 0.00 | 86 | 1014.5 |
| 20260509174003 | 48 | 192 | 6.0 | 9.0 | 0.00 | 0.00 | 0.00 | 87 | 1014.4 |
| 20260509173002 | 48 | 197 | 5.0 | 8.0 | 0.00 | 0.00 | 0.00 | 87 | 1014.5 |
| 20260509172003 | 48 | 192 | 5.0 | 7.0 | 0.00 | 0.00 | 0.00 | 87 | 1014.5 |
| 20260509171003 | 48 | 182 | 4.0 | 8.0 | 0.00 | 0.00 | 0.00 | 87 | 1014.5 |
| 20260509170003 | 48 | 195 | 0.0 | 5.0 | 0.00 | 0.00 | 0.00 | 87 | 1014.6 |
| 20260509165003 | 48 | 177 | 4.0 | 6.0 | 0.00 | 0.00 | 0.00 | 87 | 1014.5 |
| 20260509164003 | 48 | 184 | 6.0 | 9.0 | 0.00 | 0.00 | 0.00 | 86 | 1014.7 |
| 20260509163002 | 48 | 171 | 9.0 | 13.0 | 0.00 | 0.00 | 0.00 | 86 | 1014.7 |
| 20260509162003 | 49 | 183 | 9.0 | 11.0 | 0.00 | 0.00 | 0.00 | 85 | 1014.8 |
| 20260509161003 | 49 | 159 | 6.0 | 10.0 | 0.00 | 0.00 | 0.00 | 85 | 1014.5 |
| 20260509160024 | 49 | 153 | 5.0 | 9.0 | 0.00 | 0.00 | 0.00 | 85 | 1014.5 |
| 20260509155003 | 49 | 150 | 5.0 | 10.0 | 0.00 | 0.00 | 0.00 | 85 | 1014.5 |
| 20260509154003 | 49 | 168 | 10.0 | 11.0 | 0.00 | 0.00 | 0.00 | 85 | 1014.5 |
| 20260509153003 | 49 | 173 | 6.0 | 8.0 | 0.00 | 0.00 | 0.00 | 84 | 1014.5 |
| 20260509152003 | 49 | 149 | 4.0 | 5.0 | 0.00 | 0.00 | 0.00 | 84 | 1014.4 |
| 20260509151002 | 49 | 138 | 3.0 | 7.0 | 0.00 | 0.00 | 0.00 | 84 | 1014.3 |
| 20260509150003 | 49 | 159 | 3.0 | 7.0 | 0.00 | 0.00 | 0.00 | 84 | 1014.2 |
| 20260509145003 | 49 | 151 | 4.0 | 4.0 | 0.00 | 0.00 | 0.00 | 84 | 1014.2 |
| 20260509144003 | 49 | 151 | 3.0 | 5.0 | 0.00 | 0.00 | 0.00 | 84 | 1014.1 |
| 20260509143045 | 50 | 151 | 3.0 | 5.0 | 0.00 | 0.00 | 0.00 | 83 | 1014.0 |
| 20260509141003 | 50 | 154 | 6.0 | 9.0 | 0.00 | 0.00 | 0.00 | 84 | 1014.2 |
| 20260509140002 | 49 | 148 | 5.0 | 8.0 | 0.00 | 0.00 | 0.00 | 83 | 1014.3 |
| 20260509135003 | 49 | 147 | 5.0 | 8.0 | 0.00 | 0.00 | 0.00 | 83 | 1014.1 |
| 20260509134002 | 49 | 141 | 5.0 | 6.0 | 0.00 | 0.00 | 0.00 | 82 | 1014.3 |
| 20260509133003 | 49 | 129 | 4.0 | 5.0 | 0.00 | 0.00 | 0.00 | 81 | 1014.4 |
| 20260509132024 | 49 | 130 | 4.0 | 5.0 | 0.00 | 0.00 | 0.00 | 81 | 1014.4 |
| 20260509131024 | 49 | 105 | 4.0 | 5.0 | 0.00 | 0.00 | 0.00 | 81 | 1014.5 |
| 20260509130003 | 48 | 106 | 3.0 | 5.0 | 0.00 | 0.00 | 0.00 | 80 | 1014.5 |
| 20260509125002 | 48 | 89 | 4.0 | 5.0 | 0.00 | 0.00 | 0.00 | 81 | 1014.4 |
| 20260509124003 | 48 | 63 | 3.0 | 6.0 | 0.00 | 0.00 | 0.00 | 81 | 1014.4 |
| 20260509123024 | 48 | 71 | 4.0 | 6.0 | 0.00 | 0.00 | 0.00 | 80 | 1014.4 |
| 20260509122002 | 48 | 65 | 3.0 | 6.0 | 0.00 | 0.00 | 0.00 | 79 | 1014.3 |
| 20260509121003 | 48 | 59 | 4.0 | 6.0 | 0.00 | 0.00 | 0.00 | 78 | 1014.2 |
| 20260509120002 | 47 | 78 | 3.0 | 4.0 | 0.00 | 0.00 | 0.00 | 79 | 1014.3 |
| 20260509115003 | 47 | 71 | 3.0 | 4.0 | 0.00 | 0.00 | 0.00 | 81 | 1014.3 |
| 20260509114003 | 47 | 53 | 3.0 | 4.0 | 0.00 | 0.00 | 0.00 | 82 | 1014.2 |
| 20260509113003 | 47 | 46 | 2.0 | 4.0 | 0.00 | 0.00 | 0.00 | 83 | 1014.3 |
| 20260509112003 | 47 | 49 | 2.0 | 4.0 | 0.00 | 0.00 | 0.00 | 84 | 1014.1 |
| 20260509111002 | 46 | 34 | 2.0 | 4.0 | 0.00 | 0.00 | 0.00 | 84 | 1014.0 |
| 20260509110003 | 46 | 33 | 2.0 | 3.0 | 0.00 | 0.00 | 0.00 | 85 | 1013.9 |
| 20260509105003 | 45 | 34 | 0.0 | 3.0 | 0.00 | 0.00 | 0.00 | 85 | 1013.9 |
| 20260509104003 | 44 | 34 | 2.0 | 3.0 | 0.00 | 0.00 | 0.00 | 86 | 1013.8 |
| 20260509103003 | 43 | 33 | 2.0 | 4.0 | 0.00 | 0.00 | 0.00 | 86 | 1013.6 |
| 20260509102002 | 43 | 32 | 3.0 | 4.0 | 0.00 | 0.00 | 0.00 | 85 | 1013.4 |
| 20260509101003 | 44 | 8 | 2.0 | 3.0 | 0.00 | 0.00 | 0.00 | 86 | 1013.3 |
| 20260509100002 | 43 | 291 | 2.0 | 2.0 | 0.00 | 0.00 | 0.00 | 86 | 1013.2 |
| 20260509095024 | 41 | 291 | 2.0 | 3.0 | 0.00 | 0.00 | 0.00 | 85 | 1013.2 |
| 20260509094003 | 40 | 291 | 1.0 | 2.0 | 0.00 | 0.00 | 0.00 | 81 | 1012.9 |
| 20260509093002 | 41 | 291 | 1.0 | 2.0 | 0.00 | 0.00 | 0.00 | 79 | 1012.9 |
| 20260509092024 | 42 | 291 | 0.0 | 5.0 | 0.00 | 0.00 | 0.00 | 79 | 1012.7 |
| 20260509091024 | 42 | 277 | 3.0 | 7.0 | 0.00 | 0.00 | 0.00 | 80 | 1012.6 |
| 20260509090003 | 42 | 276 | 6.0 | 7.0 | 0.00 | 0.00 | 0.00 | 81 | 1012.7 |
| 20260509085003 | 43 | 286 | 5.0 | 7.0 | 0.00 | 0.00 | 0.00 | 82 | 1012.6 |
| 20260509084002 | 43 | 271 | 4.0 | 8.0 | 0.00 | 0.00 | 0.00 | 83 | 1012.7 |
| 20260509083003 | 43 | 280 | 5.0 | 7.0 | 0.00 | 0.00 | 0.00 | 83 | 1012.8 |
| 20260509082002 | 43 | 277 | 5.0 | 7.0 | 0.00 | 0.00 | 0.00 | 83 | 1012.8 |
| 20260509081003 | 43 | 266 | 4.0 | 6.0 | 0.00 | 0.00 | 0.00 | 82 | 1012.7 |
| 20260509080003 | 43 | 263 | 4.0 | 6.0 | 0.00 | 0.00 | 0.00 | 83 | 1012.8 |
| 20260509075003 | 43 | 266 | 4.0 | 6.0 | 0.00 | 0.00 | 0.00 | 82 | 1012.6 |
| 20260509073003 | 43 | 260 | 3.0 | 6.0 | 0.00 | 0.00 | 0.00 | 80 | 1012.6 |
| 20260509072003 | 43 | 231 | 2.0 | 3.0 | 0.00 | 0.00 | 0.00 | 79 | 1012.6 |
| 20260509071002 | 43 | 231 | 2.0 | 3.0 | 0.00 | 0.00 | 0.00 | 78 | 1012.4 |
| 20260509070003 | 43 | 231 | 1.0 | 3.0 | 0.00 | 0.00 | 0.00 | 78 | 1012.4 |
| 20260509065002 | 43 | 231 | 2.0 | 3.0 | 0.00 | 0.00 | 0.00 | 78 | 1012.2 |
| 20260509064003 | 43 | 231 | 2.0 | 4.0 | 0.00 | 0.00 | 0.00 | 77 | 1012.1 |
| 20260509063003 | 43 | 272 | 2.0 | 4.0 | 0.00 | 0.00 | 0.00 | 77 | 1012.0 |
| 20260509062002 | 43 | 274 | 3.0 | 5.0 | 0.00 | 0.00 | 0.00 | 76 | 1011.9 |
| 20260509061024 | 43 | 275 | 4.0 | 7.0 | 0.00 | 0.00 | 0.00 | 76 | 1011.8 |
| 20260509060003 | 43 | 281 | 4.0 | 5.0 | 0.00 | 0.00 | 0.00 | 76 | 1011.7 |
| 20260509055003 | 44 | 281 | 4.0 | 5.0 | 0.00 | 0.00 | 0.00 | 75 | 1011.8 |
| 20260509054002 | 44 | 303 | 3.0 | 4.0 | 0.00 | 0.00 | 0.00 | 74 | 1011.8 |
| 20260509053003 | 44 | 303 | 3.0 | 5.0 | 0.00 | 0.00 | 0.00 | 73 | 1011.8 |
| 20260509052003 | 44 | 305 | 3.0 | 6.0 | 0.00 | 0.00 | 0.00 | 73 | 1011.8 |
| 20260509051003 | 44 | 306 | 3.0 | 7.0 | 0.00 | 0.00 | 0.00 | 73 | 1011.9 |
| 20260509050003 | 44 | 278 | 6.0 | 8.0 | 0.00 | 0.00 | 0.00 | 72 | 1011.8 |
| 20260509045003 | 44 | 337 | 2.0 | 6.0 | 0.00 | 0.00 | 0.00 | 67 | 1011.9 |
| 20260509044003 | 44 | 339 | 4.0 | 5.0 | 0.00 | 0.00 | 0.00 | 66 | 1011.9 |
| 20260509043003 | 44 | 336 | 4.0 | 7.0 | 0.00 | 0.00 | 0.00 | 66 | 1011.8 |
| 20260509042023 | 44 | 324 | 6.0 | 7.0 | 0.00 | 0.00 | 0.00 | 68 | 1011.6 |
| 20260509041003 | 44 | 324 | 5.0 | 6.0 | 0.00 | 0.00 | 0.00 | 68 | 1011.5 |
| 20260509040003 | 43 | 326 | 5.0 | 7.0 | 0.00 | 0.00 | 0.00 | 71 | 1011.5 |
| 20260509035045 | 42 | 322 | 6.0 | 7.0 | 0.00 | 0.00 | 0.00 | 73 | 1011.3 |
| 20260509034003 | 42 | 313 | 5.0 | 6.0 | 0.00 | 0.00 | 0.00 | 74 | 1011.3 |
| 20260509033003 | 42 | 305 | 4.0 | 6.0 | 0.00 | 0.00 | 0.00 | 73 | 1011.2 |
| 20260509032003 | 42 | 304 | 5.0 | 6.0 | 0.00 | 0.00 | 0.00 | 73 | 1011.1 |
| 20260509031002 | 42 | 312 | 5.0 | 6.0 | 0.00 | 0.00 | 0.00 | 72 | 1010.8 |
| 20260509030003 | 43 | 318 | 5.0 | 6.0 | 0.00 | 0.00 | 0.00 | 71 | 1010.7 |
| 20260509025003 | 44 | 299 | 4.0 | 6.0 | 0.00 | 0.00 | 0.00 | 69 | 1010.7 |
| 20260509024024 | 43 | 298 | 5.0 | 8.0 | 0.00 | 0.00 | 0.00 | 70 | 1010.7 |
| 20260509023003 | 43 | 302 | 5.0 | 6.0 | 0.00 | 0.00 | 0.00 | 73 | 1010.5 |
| 20260509022024 | 42 | 301 | 4.0 | 6.0 | 0.00 | 0.00 | 0.00 | 74 | 1010.3 |
| 20260509021003 | 42 | 299 | 4.0 | 4.0 | 0.00 | 0.00 | 0.00 | 73 | 1010.1 |
| 20260509020003 | 43 | 288 | 3.0 | 3.0 | 0.00 | 0.00 | 0.00 | 72 | 1010.0 |
| 20260509015002 | 44 | 287 | 3.0 | 4.0 | 0.00 | 0.00 | 0.00 | 71 | 1010.0 |
| 20260509014003 | 45 | 288 | 3.0 | 4.0 | 0.00 | 0.00 | 0.00 | 69 | 1010.0 |
| 20260509013003 | 45 | 288 | 3.0 | 4.0 | 0.00 | 0.00 | 0.00 | 69 | 1009.8 |
| 20260509012003 | 44 | 287 | 3.0 | 7.0 | 0.00 | 0.00 | 0.00 | 70 | 1009.6 |
| 20260509011003 | 44 | 304 | 3.0 | 6.0 | 0.00 | 0.00 | 0.00 | 73 | 1009.3 |
| 20260509010003 | 44 | 326 | 2.0 | 3.0 | 0.00 | 0.00 | 0.00 | 72 | 1009.1 |
| 20260509005003 | 46 | 326 | 2.0 | 3.0 | 0.00 | 0.00 | 0.00 | 69 | 1009.0 |
| 20260509004002 | 48 | 326 | 2.0 | 3.0 | 0.00 | 0.00 | 0.00 | 66 | 1008.8 |